Regional Weather Roundup
Issued by NWS Cleveland, OH

Home | Current Version | Previous Version | Text Only | Print | Product List | Glossary Off
Versions: 1 2 3 4 5 6 7 8 9 10 11 12 13 14 15 16 17 18 19 20 21 22 23 24 25 26 27 28 29 30 31 32 33 34 35 36 37 38 39 40 41 42 43 44 45 46 47 48 49 50

247
ASUS41 KCLE 191510
RWRCLE
OHIO REGIONAL WEATHER ROUNDUP
NATIONAL WEATHER SERVICE CLEVELAND, OH
1000 AM EST SUN NOV 19 2017

NOTE: "FAIR" INDICATES FEW OR NO CLOUDS BELOW 12,000 FEET WITH NO
SIGNIFICANT WEATHER AND/OR OBSTRUCTIONS TO VISIBILITY.

OHZ001>008-015>018-024>027-034-035-043-044-191600-
   NORTHWEST OHIO

CITY           SKY/WX    TMP DP  RH WIND       PRES   REMARKS
DEFIANCE       CLOUDY    38  29  70 W12G18    29.91R
FINDLAY        MIX PCPN  37  31  78 W10       29.88R
TOLEDO EXPRESS CLOUDY    37  33  85 W10       29.88R
TOLEDO EXEC    CLOUDY    38  30  73 W13G21    29.88R
LIMA           NOT AVBL
$$

OHZ009>014-019>023-028>033-038-089-191600-
   NORTHEAST OHIO

CITY           SKY/WX    TMP DP  RH WIND       PRES   REMARKS
CLE-HOPKINS    CLOUDY    37  30  75 W13       29.84R
CLE-LAKEFRONT  CLOUDY    39  29  67 W23G32    29.80R
CUY CO. ARPT   CLOUDY    39  28  65 NW18G25   29.80R
LORAIN-ELYRIA  CLOUDY    38  23  55 NW15G24   29.83S
ASHTABULA      LGT SNOW  34  31  88 NW12      29.77R FOG     WCI  25
AKRON-CANTON   CLOUDY    37  28  70 W16G22    29.81R
WOOSTER        CLOUDY    37  29  72 NW17G23   29.84R
MANSFIELD      CLOUDY    36  30  79 W8        29.84R
YOUNGSTOWN     CLOUDY    37  29  72 W10       29.76R
$$

OHZ042-051>053-060>062-070>072-077>081-191600-
  SOUTHWEST OHIO

CITY           SKY/WX    TMP DP  RH WIND       PRES   REMARKS
CINC-COVINGTON CLOUDY    38  32  79 W15G21    30.00R
CINC-LUNKEN    CLOUDY    40  32  73 W12       30.02R
HAMILTON       CLOUDY    38  32  79 W15G21    30.01R
DAYTON         CLOUDY    37  33  85 W13       29.95R
WRIGHT-PAT AFB CLOUDY    39  31  73 W14       29.95R
DAYTON GENERAL CLOUDY    38  30  73 W12       29.96R
WILMINGTON     CLOUDY    38  31  76 W13       29.95R
$$

OHZ036-037-039>041-045>050-054>059-063>069-073>076-082>088-191600-
  CENTRAL AND SOUTHEAST OHIO

CITY           SKY/WX    TMP DP  RH WIND       PRES   REMARKS
COLUMBUS       CLOUDY    39  34  82 W15       29.90R
OSU AIRPORT    CLOUDY    39  34  82 W17G23    29.90R
BOLTON FIELD   MOSUNNY   37  34  87 W13       29.92R
RICKENBACK AFB CLOUDY    38  34  85 W13G22    29.92R
NEWARK         CLOUDY    40  30  67 W8        29.88R
MARION         CLOUDY    37  32  82 NW10      29.88R
LANCASTER      CLOUDY    38  33  82 W12       29.91R
ZANESVILLE     CLOUDY    40  29  64 W10       29.88R
NEW PHILLY     NOT AVBL
$$




USA.gov is the U.S. government's official web portal to all federal, state and local government web resources and services.